Time,TemperatureF,DewpointF,PressureIn,WindDirection,WindDirectionDegrees,WindSpeedMPH,WindSpeedGustMPH,Humidity,HourlyPrecipIn,Conditions,Clouds,dailyrainin,SoftwareType,DateUTC
2013-04-21 00:03:00,69.6,63.2,29.97,NNW,347,0.0,-999.0,80,0.00,,,0.00,PyWeather,2013-04-21 10:03:00,
2013-04-21 00:08:00,69.9,63.5,29.97,NNW,348,0.0,-999.0,80,0.00,,,0.00,PyWeather,2013-04-21 10:08:00,
2013-04-21 00:13:00,70.0,63.6,29.96,NNW,348,0.0,-999.0,80,0.00,,,0.00,PyWeather,2013-04-21 10:13:00,
2013-04-21 00:18:00,70.0,63.6,29.96,NNW,348,0.0,-999.0,80,0.00,,,0.00,PyWeather,2013-04-21 10:18:00,
2013-04-21 00:23:00,69.9,63.9,29.96,NNW,348,0.0,-999.0,81,0.00,,,0.00,PyWeather,2013-04-21 10:23:00,
2013-04-21 00:28:00,69.8,63.4,29.96,NNW,347,0.0,-999.0,80,0.00,,,0.00,PyWeather,2013-04-21 10:28:00,
2013-04-21 00:33:00,69.2,62.5,29.96,NNW,348,0.0,-999.0,79,0.00,,,0.00,PyWeather,2013-04-21 10:33:00,
2013-04-21 00:38:00,68.7,62.4,29.95,NNE,19,0.0,-999.0,80,0.00,,,0.00,PyWeather,2013-04-21 10:38:00,
2013-04-21 00:43:00,68.8,62.8,29.95,NNE,19,0.0,-999.0,81,0.00,,,0.00,PyWeather,2013-04-21 10:43:00,
2013-04-21 00:48:00,68.6,62.3,29.95,NNE,18,0.0,-999.0,80,0.00,,,0.00,PyWeather,2013-04-21 10:48:00,
2013-04-21 00:53:00,68.4,62.1,29.95,NNE,19,0.0,-999.0,80,0.00,,,0.00,PyWeather,2013-04-21 10:53:00,
2013-04-21 00:58:00,68.9,63.2,29.95,NNE,19,0.0,-999.0,82,0.00,,,0.00,PyWeather,2013-04-21 10:58:00,
2013-04-21 01:03:00,69.3,63.3,29.94,NNE,18,0.0,-999.0,81,0.00,,,0.00,PyWeather,2013-04-21 11:03:00,
2013-04-21 01:08:00,69.2,62.8,29.94,NNE,19,0.0,-999.0,80,0.00,,,0.00,PyWeather,2013-04-21 11:08:00,
2013-04-21 01:13:00,69.1,62.7,29.94,NNE,19,0.0,-999.0,80,0.00,,,0.00,PyWeather,2013-04-21 11:13:00,
2013-04-21 01:18:00,69.0,62.7,29.94,NNE,19,0.0,-999.0,80,0.00,,,0.00,PyWeather,2013-04-21 11:18:00,
2013-04-21 01:23:00,68.9,62.6,29.93,NNE,18,0.0,-999.0,80,0.00,,,0.00,PyWeather,2013-04-21 11:23:00,
2013-04-21 01:28:00,68.7,62.4,29.93,ENE,70,0.0,-999.0,80,0.00,,,0.00,PyWeather,2013-04-21 11:28:00,
2013-04-21 01:33:00,68.9,62.9,29.94,ENE,71,0.0,-999.0,81,0.00,,,0.00,PyWeather,2013-04-21 11:33:00,
2013-04-21 01:38:00,69.0,63.0,29.93,ENE,70,0.0,-999.0,81,0.00,,,0.00,PyWeather,2013-04-21 11:38:00,
2013-04-21 01:43:00,68.8,62.5,29.93,ENE,70,0.0,-999.0,80,0.00,,,0.00,PyWeather,2013-04-21 11:43:00,
2013-04-21 01:48:00,68.7,62.4,29.93,ENE,70,0.0,-999.0,80,0.00,,,0.00,PyWeather,2013-04-21 11:48:00,
2013-04-21 01:53:00,68.6,62.3,29.93,ENE,70,0.0,-999.0,80,0.00,,,0.00,PyWeather,2013-04-21 11:53:00,
2013-04-21 01:58:00,68.7,62.7,29.92,ENE,69,0.0,-999.0,81,0.00,,,0.00,PyWeather,2013-04-21 11:58:00,
2013-04-21 02:03:00,68.7,62.7,29.92,ENE,69,0.0,-999.0,81,0.00,,,0.00,PyWeather,2013-04-21 12:03:00,
2013-04-21 02:08:00,68.6,62.6,29.92,ENE,71,0.0,-999.0,81,0.00,,,0.00,PyWeather,2013-04-21 12:08:00,
2013-04-21 02:13:00,68.6,62.3,29.92,ENE,70,0.0,-999.0,80,0.00,,,0.00,PyWeather,2013-04-21 12:13:00,
2013-04-21 02:18:00,68.1,61.8,29.91,ENE,71,0.0,-999.0,80,0.00,,,0.00,PyWeather,2013-04-21 12:18:00,
2013-04-21 02:23:00,67.8,61.5,29.91,ENE,70,0.0,-999.0,80,0.00,,,0.00,PyWeather,2013-04-21 12:23:00,
2013-04-21 02:28:00,67.6,61.3,29.91,ENE,70,0.0,-999.0,80,0.00,,,0.00,PyWeather,2013-04-21 12:28:00,
2013-04-21 02:33:00,67.4,61.4,29.91,ENE,71,0.0,-999.0,81,0.00,,,0.00,PyWeather,2013-04-21 12:33:00,
2013-04-21 02:38:00,67.3,61.3,29.90,ENE,70,0.0,-999.0,81,0.00,,,0.00,PyWeather,2013-04-21 12:38:00,
2013-04-21 02:43:00,67.2,61.2,29.90,ENE,71,0.0,-999.0,81,0.00,,,0.00,PyWeather,2013-04-21 12:43:00,
2013-04-21 02:48:00,67.0,61.0,29.90,ENE,70,0.0,-999.0,81,0.00,,,0.00,PyWeather,2013-04-21 12:48:00,
2013-04-21 02:53:00,66.9,60.9,29.90,ENE,70,0.0,-999.0,81,0.00,,,0.00,PyWeather,2013-04-21 12:53:00,
2013-04-21 02:58:00,66.8,60.8,29.90,ENE,71,0.0,-999.0,81,0.00,,,0.00,PyWeather,2013-04-21 12:58:00,
2013-04-21 03:03:00,66.7,60.7,29.90,ENE,70,0.0,-999.0,81,0.00,,,0.00,PyWeather,2013-04-21 13:03:00,
2013-04-21 03:08:00,66.2,60.6,29.90,ENE,69,0.0,-999.0,82,0.00,,,0.00,PyWeather,2013-04-21 13:08:00,
2013-04-21 03:13:00,66.0,60.7,29.90,ENE,71,0.0,-999.0,83,0.00,,,0.00,PyWeather,2013-04-21 13:13:00,
2013-04-21 03:18:00,66.0,60.7,29.91,ENE,70,0.0,-999.0,83,0.00,,,0.00,PyWeather,2013-04-21 13:18:00,
2013-04-21 03:23:00,65.9,60.6,29.91,ENE,71,0.0,-999.0,83,0.00,,,0.00,PyWeather,2013-04-21 13:23:00,
2013-04-21 03:28:00,65.7,60.4,29.91,ENE,69,0.0,-999.0,83,0.00,,,0.00,PyWeather,2013-04-21 13:28:00,
2013-04-21 03:33:00,65.7,60.4,29.90,ENE,70,0.0,-999.0,83,0.00,,,0.00,PyWeather,2013-04-21 13:33:00,
2013-04-21 03:38:00,65.7,60.4,29.90,ENE,70,0.0,-999.0,83,0.00,,,0.00,PyWeather,2013-04-21 13:38:00,
2013-04-21 03:43:00,65.7,60.4,29.90,ENE,70,0.0,-999.0,83,0.00,,,0.00,PyWeather,2013-04-21 13:43:00,
2013-04-21 03:48:00,65.6,60.3,29.91,ENE,69,0.0,-999.0,83,0.00,,,0.00,PyWeather,2013-04-21 13:48:00,
2013-04-21 03:53:00,65.7,60.4,29.91,ENE,70,0.0,-999.0,83,0.00,,,0.00,PyWeather,2013-04-21 13:53:00,
2013-04-21 03:58:00,65.9,60.6,29.91,ENE,70,0.0,-999.0,83,0.00,,,0.00,PyWeather,2013-04-21 13:58:00,
2013-04-21 04:03:00,66.1,60.8,29.91,ENE,70,0.0,-999.0,83,0.00,,,0.00,PyWeather,2013-04-21 14:03:00,
2013-04-21 04:08:00,66.4,60.8,29.91,ESE,107,1.0,-999.0,82,0.00,,,0.00,PyWeather,2013-04-21 14:08:00,
2013-04-21 04:13:00,66.5,60.9,29.91,ESE,107,1.0,-999.0,82,0.00,,,0.00,PyWeather,2013-04-21 14:13:00,
2013-04-21 04:18:00,66.6,61.0,29.91,ESE,107,0.0,-999.0,82,0.00,,,0.00,PyWeather,2013-04-21 14:18:00,
2013-04-21 04:23:00,66.7,61.1,29.91,ESE,107,0.0,-999.0,82,0.00,,,0.00,PyWeather,2013-04-21 14:23:00,
2013-04-21 04:28:00,66.7,61.1,29.91,ESE,106,0.0,-999.0,82,0.00,,,0.00,PyWeather,2013-04-21 14:28:00,
2013-04-21 04:33:00,66.8,60.8,29.91,ESE,107,0.0,-999.0,81,0.00,,,0.00,PyWeather,2013-04-21 14:33:00,
2013-04-21 04:38:00,66.9,60.9,29.91,ESE,107,0.0,-999.0,81,0.00,,,0.00,PyWeather,2013-04-21 14:38:00,
2013-04-21 04:43:00,66.9,60.9,29.91,ESE,106,0.0,-999.0,81,0.00,,,0.00,PyWeather,2013-04-21 14:43:00,
2013-04-21 04:48:00,67.0,61.0,29.91,ESE,106,0.0,-999.0,81,0.00,,,0.00,PyWeather,2013-04-21 14:48:00,
2013-04-21 04:53:00,66.8,60.8,29.91,ESE,106,0.0,-999.0,81,0.00,,,0.00,PyWeather,2013-04-21 14:53:00,
2013-04-21 04:58:00,66.7,60.7,29.91,ESE,107,0.0,-999.0,81,0.00,,,0.00,PyWeather,2013-04-21 14:58:00,
2013-04-21 05:03:00,66.7,60.7,29.91,ESE,106,0.0,-999.0,81,0.00,,,0.00,PyWeather,2013-04-21 15:03:00,
2013-04-21 05:08:00,66.5,60.2,29.91,ESE,106,0.0,-999.0,80,0.00,,,0.00,PyWeather,2013-04-21 15:08:00,
2013-04-21 05:13:00,66.2,59.9,29.91,ESE,107,0.0,-999.0,80,0.00,,,0.00,PyWeather,2013-04-21 15:13:00,
2013-04-21 05:18:00,66.0,59.7,29.91,ESE,107,0.0,-999.0,80,0.00,,,0.00,PyWeather,2013-04-21 15:18:00,
2013-04-21 05:23:00,65.8,59.5,29.91,ESE,106,0.0,-999.0,80,0.00,,,0.00,PyWeather,2013-04-21 15:23:00,
2013-04-21 05:28:00,65.5,59.6,29.91,ESE,107,0.0,-999.0,81,0.00,,,0.00,PyWeather,2013-04-21 15:28:00,
2013-04-21 05:33:00,65.3,59.4,29.91,ESE,106,0.0,-999.0,81,0.00,,,0.00,PyWeather,2013-04-21 15:33:00,
2013-04-21 05:38:00,65.2,59.3,29.91,ESE,106,0.0,-999.0,81,0.00,,,0.00,PyWeather,2013-04-21 15:38:00,
2013-04-21 05:43:00,65.3,59.7,29.91,ESE,106,0.0,-999.0,82,0.00,,,0.00,PyWeather,2013-04-21 15:43:00,
2013-04-21 05:48:00,65.7,60.1,29.91,ESE,107,0.0,-999.0,82,0.00,,,0.00,PyWeather,2013-04-21 15:48:00,
2013-04-21 05:53:00,66.2,60.6,29.91,ESE,107,0.0,-999.0,82,0.00,,,0.00,PyWeather,2013-04-21 15:53:00,
2013-04-21 05:58:00,66.5,60.9,29.92,ESE,107,1.0,-999.0,82,0.00,,,0.00,PyWeather,2013-04-21 15:58:00,
2013-04-21 06:03:00,66.6,61.0,29.92,ESE,107,2.0,-999.0,82,0.00,,,0.00,PyWeather,2013-04-21 16:03:00,
2013-04-21 06:08:00,66.6,61.0,29.92,ESE,106,2.0,-999.0,82,0.00,,,0.00,PyWeather,2013-04-21 16:08:00,
2013-04-21 06:13:00,66.6,61.0,29.92,ESE,107,2.0,-999.0,82,0.00,,,0.00,PyWeather,2013-04-21 16:13:00,
2013-04-21 06:18:00,66.8,60.8,29.92,ESE,107,3.0,-999.0,81,0.00,,,0.00,PyWeather,2013-04-21 16:18:00,
2013-04-21 06:23:00,67.0,61.0,29.92,ESE,106,3.0,-999.0,81,0.00,,,0.00,PyWeather,2013-04-21 16:23:00,
2013-04-21 06:28:00,67.3,61.3,29.92,ESE,107,2.0,-999.0,81,0.00,,,0.00,PyWeather,2013-04-21 16:28:00,
2013-04-21 06:33:00,67.7,61.7,29.92,ESE,106,1.0,-999.0,81,0.00,,,0.00,PyWeather,2013-04-21 16:33:00,
2013-04-21 06:38:00,68.1,62.1,29.92,ESE,106,1.0,-999.0,81,0.00,,,0.00,PyWeather,2013-04-21 16:38:00,
2013-04-21 06:43:00,68.6,62.3,29.93,ESE,113,1.0,-999.0,80,0.00,,,0.00,PyWeather,2013-04-21 16:43:00,
2013-04-21 06:48:00,69.2,62.5,29.93,SE,130,2.0,-999.0,79,0.00,,,0.00,PyWeather,2013-04-21 16:48:00,
2013-04-21 06:53:00,69.9,62.8,29.93,SE,134,2.0,-999.0,78,0.00,,,0.00,PyWeather,2013-04-21 16:53:00,
2013-04-21 06:58:00,70.5,63.4,29.93,SE,133,1.0,-999.0,78,0.00,,,0.00,PyWeather,2013-04-21 16:58:00,
2013-04-21 07:03:00,71.0,63.2,29.93,SE,132,1.0,-999.0,76,0.00,,,0.00,PyWeather,2013-04-21 17:03:00,
2013-04-21 07:08:00,71.6,63.4,29.93,SE,134,1.0,-999.0,75,0.00,,,0.00,PyWeather,2013-04-21 17:08:00,
2013-04-21 07:13:00,72.2,63.6,29.93,SE,133,1.0,-999.0,74,0.00,,,0.00,PyWeather,2013-04-21 17:13:00,
2013-04-21 07:18:00,72.9,64.3,29.94,SE,136,1.0,-999.0,74,0.00,,,0.00,PyWeather,2013-04-21 17:18:00,
2013-04-21 07:23:00,73.5,64.9,29.94,SSE,161,1.0,-999.0,74,0.00,,,0.00,PyWeather,2013-04-21 17:23:00,
2013-04-21 07:28:00,73.9,64.9,29.94,South,183,2.0,-999.0,73,0.00,,,0.00,PyWeather,2013-04-21 17:28:00,
2013-04-21 07:33:00,74.2,65.2,29.94,South,176,2.0,-999.0,73,0.00,,,0.00,PyWeather,2013-04-21 17:33:00,
2013-04-21 07:38:00,74.6,65.9,29.94,South,186,2.0,-999.0,74,0.00,,,0.00,PyWeather,2013-04-21 17:38:00,
2013-04-21 07:43:00,75.0,66.7,29.94,SSW,199,2.0,-999.0,75,0.00,,,0.00,PyWeather,2013-04-21 17:43:00,
2013-04-21 07:48:00,75.1,66.8,29.94,SSW,196,3.0,-999.0,75,0.00,,,0.00,PyWeather,2013-04-21 17:48:00,
2013-04-21 07:53:00,75.3,67.4,29.95,South,189,3.0,-999.0,76,0.00,,,0.00,PyWeather,2013-04-21 17:53:00,
2013-04-21 07:58:00,75.4,67.5,29.95,South,188,4.0,-999.0,76,0.00,,,0.00,PyWeather,2013-04-21 17:58:00,
2013-04-21 08:03:00,75.7,67.7,29.94,South,182,3.0,-999.0,76,0.00,,,0.00,PyWeather,2013-04-21 18:03:00,
2013-04-21 08:08:00,75.7,67.4,29.95,SSW,198,4.0,-999.0,75,0.00,,,0.00,PyWeather,2013-04-21 18:08:00,
2013-04-21 08:13:00,75.9,66.8,29.95,South,182,5.0,-999.0,73,0.00,,,0.00,PyWeather,2013-04-21 18:13:00,
2013-04-21 08:18:00,76.2,66.7,29.94,South,175,5.0,-999.0,72,0.00,,,0.00,PyWeather,2013-04-21 18:18:00,
2013-04-21 08:23:00,76.6,66.3,29.95,South,175,5.0,-999.0,70,0.00,,,0.00,PyWeather,2013-04-21 18:23:00,
2013-04-21 08:28:00,76.8,66.1,29.94,South,175,5.0,-999.0,69,0.00,,,0.00,PyWeather,2013-04-21 18:28:00,
2013-04-21 08:33:00,77.0,65.8,29.94,South,185,5.0,-999.0,68,0.00,,,0.00,PyWeather,2013-04-21 18:33:00,
2013-04-21 08:38:00,77.1,65.9,29.94,SW,220,7.0,-999.0,68,0.00,,,0.00,PyWeather,2013-04-21 18:38:00,
2013-04-21 08:43:00,77.1,65.9,29.94,South,171,7.0,-999.0,68,0.00,,,0.00,PyWeather,2013-04-21 18:43:00,
2013-04-21 08:48:00,77.3,65.7,29.94,South,179,7.0,-999.0,67,0.00,,,0.00,PyWeather,2013-04-21 18:48:00,
2013-04-21 08:53:00,77.7,66.1,29.95,South,190,7.0,-999.0,67,0.00,,,0.00,PyWeather,2013-04-21 18:53:00,
2013-04-21 08:58:00,77.9,65.9,29.94,SSW,196,7.0,-999.0,66,0.00,,,0.00,PyWeather,2013-04-21 18:58:00,
2013-04-21 09:03:00,78.1,66.0,29.94,SSW,192,7.0,-999.0,66,0.00,,,0.00,PyWeather,2013-04-21 19:03:00,
2013-04-21 09:08:00,78.3,65.8,29.94,SSW,206,8.0,-999.0,65,0.00,,,0.00,PyWeather,2013-04-21 19:08:00,
2013-04-21 09:13:00,78.7,66.2,29.94,South,185,8.0,-999.0,65,0.00,,,0.00,PyWeather,2013-04-21 19:13:00,
2013-04-21 09:18:00,78.8,65.8,29.94,SSW,209,9.0,16.0,64,0.00,,,0.00,PyWeather,2013-04-21 19:18:00,
2013-04-21 09:23:00,78.7,66.2,29.94,South,190,9.0,16.0,65,0.00,,,0.00,PyWeather,2013-04-21 19:23:00,
2013-04-21 09:28:00,78.9,66.4,29.94,SSW,211,9.0,-999.0,65,0.00,,,0.00,PyWeather,2013-04-21 19:28:00,
2013-04-21 09:33:00,79.0,66.5,29.94,SW,219,9.0,-999.0,65,0.00,,,0.00,PyWeather,2013-04-21 19:33:00,
2013-04-21 09:38:00,78.7,66.6,29.94,SW,221,10.0,-999.0,66,0.00,,,0.00,PyWeather,2013-04-21 19:38:00,
2013-04-21 09:43:00,78.8,66.7,29.94,SW,221,10.0,-999.0,66,0.00,,,0.00,PyWeather,2013-04-21 19:43:00,
2013-04-21 09:48:00,78.5,66.4,29.95,SSW,209,9.0,-999.0,66,0.00,,,0.00,PyWeather,2013-04-21 19:48:00,
2013-04-21 09:53:00,78.4,66.3,29.94,SSW,194,10.0,-999.0,66,0.00,,,0.00,PyWeather,2013-04-21 19:53:00,
2013-04-21 09:58:00,78.6,67.0,29.94,SSW,211,10.0,-999.0,67,0.00,,,0.00,PyWeather,2013-04-21 19:58:00,
2013-04-21 10:03:00,78.9,66.8,29.94,SSW,208,9.0,-999.0,66,0.00,,,0.00,PyWeather,2013-04-21 20:03:00,
2013-04-21 10:08:00,78.6,67.0,29.94,SW,220,10.0,17.0,67,0.00,,,0.00,PyWeather,2013-04-21 20:08:00,
2013-04-21 10:13:00,79.2,67.5,29.94,SSW,202,10.0,17.0,67,0.00,,,0.00,PyWeather,2013-04-21 20:13:00,
2013-04-21 10:40:00,78.8,68.0,29.94,WSW,237,12.0,-999.0,69,0.00,,,0.00,PyWeather,2013-04-21 20:40:00,
2013-04-21 10:45:00,78.8,68.4,29.94,SW,223,13.0,-999.0,70,0.00,,,0.00,PyWeather,2013-04-21 20:45:00,
2013-04-21 10:50:00,79.0,68.2,29.94,SW,214,13.0,-999.0,69,0.00,,,0.00,PyWeather,2013-04-21 20:50:00,
2013-04-21 10:56:00,79.7,68.0,29.94,SSW,213,15.0,-999.0,67,0.00,,,0.00,PyWeather,2013-04-21 20:56:00,
2013-04-21 10:57:00,79.7,68.4,29.94,SSW,207,13.0,-999.0,68,0.00,,,0.00,PyWeather,2013-04-21 20:57:00,
2013-04-21 11:02:00,79.7,68.0,29.94,SSW,213,13.0,-999.0,67,0.00,,,0.00,PyWeather,2013-04-21 21:02:00,
2013-04-21 11:14:00,79.7,68.0,29.93,SW,226,15.0,-999.0,67,0.00,,,0.00,PyWeather,2013-04-21 21:14:00,
2013-04-21 11:19:00,80.2,68.1,29.94,SW,233,14.0,-999.0,66,0.00,,,0.00,PyWeather,2013-04-21 21:19:00,
2013-04-21 11:24:00,79.8,68.1,29.93,SW,236,15.0,-999.0,67,0.00,,,0.00,PyWeather,2013-04-21 21:24:00,
2013-04-21 11:26:00,80.4,67.8,29.93,WSW,238,16.0,-999.0,65,0.00,,,0.00,PyWeather,2013-04-21 21:26:00,
2013-04-21 11:44:00,80.4,67.8,29.93,SSW,208,16.0,-999.0,65,0.00,,,0.00,PyWeather,2013-04-21 21:44:00,
2013-04-21 11:49:00,81.1,68.0,29.93,SW,225,14.0,-999.0,64,0.00,,,0.00,PyWeather,2013-04-21 21:49:00,
2013-04-21 11:54:00,80.9,67.4,29.93,SW,218,14.0,-999.0,63,0.00,,,0.00,PyWeather,2013-04-21 21:54:00,
2013-04-21 11:59:00,81.1,68.0,29.92,SSW,206,14.0,-999.0,64,0.00,,,0.00,PyWeather,2013-04-21 21:59:00,
2013-04-21 15:57:00,80.0,69.6,29.87,NNE,17,8.0,-999.0,70,0.00,,,0.00,PyWeather,2013-04-22 01:57:00,
2013-04-21 16:02:00,80.0,69.1,29.87,North,360,9.0,-999.0,69,0.00,,,0.00,PyWeather,2013-04-22 02:02:00,
2013-04-21 16:07:00,79.6,69.2,29.87,North,355,9.0,-999.0,70,0.00,,,0.00,PyWeather,2013-04-22 02:07:00,
2013-04-21 16:12:00,79.6,69.2,29.87,NNW,340,9.0,-999.0,70,0.00,,,0.00,PyWeather,2013-04-22 02:12:00,
2013-04-21 16:17:00,80.0,70.0,29.87,North,5,8.0,-999.0,71,0.00,,,0.00,PyWeather,2013-04-22 02:17:00,
2013-04-21 16:22:00,79.5,69.1,29.87,NNE,17,8.0,-999.0,70,0.00,,,0.00,PyWeather,2013-04-22 02:22:00,
2013-04-21 16:27:00,79.4,69.0,29.88,NNE,22,9.0,-999.0,70,0.00,,,0.00,PyWeather,2013-04-22 02:27:00,
2013-04-21 16:32:00,79.5,69.5,29.87,North,355,8.0,-999.0,71,0.00,,,0.00,PyWeather,2013-04-22 02:32:00,
2013-04-21 16:37:00,80.2,69.3,29.88,NE,38,7.0,-999.0,69,0.00,,,0.00,PyWeather,2013-04-22 02:37:00,
2013-04-21 16:42:00,79.8,69.0,29.88,North,355,7.0,-999.0,69,0.00,,,0.00,PyWeather,2013-04-22 02:42:00,
2013-04-21 16:47:00,79.3,68.9,29.88,North,360,8.0,-999.0,70,0.00,,,0.00,PyWeather,2013-04-22 02:47:00,
2013-04-21 16:52:00,79.1,68.7,29.88,North,350,8.0,-999.0,70,0.00,,,0.00,PyWeather,2013-04-22 02:52:00,
2013-04-21 16:57:00,78.8,68.8,29.88,NNW,338,9.0,-999.0,71,0.00,,,0.00,PyWeather,2013-04-22 02:57:00,
2013-04-21 17:02:00,78.8,69.2,29.88,NNE,32,9.0,-999.0,72,0.00,,,0.00,PyWeather,2013-04-22 03:02:00,
2013-04-21 17:07:00,78.7,69.1,29.88,North,355,8.0,-999.0,72,0.00,,,0.00,PyWeather,2013-04-22 03:07:00,
2013-04-21 17:12:00,78.6,69.0,29.89,North,355,8.0,-999.0,72,0.00,,,0.00,PyWeather,2013-04-22 03:12:00,
2013-04-21 17:17:00,78.5,68.9,29.89,North,10,7.0,-999.0,72,0.00,,,0.00,PyWeather,2013-04-22 03:17:00,
2013-04-21 17:22:00,78.6,69.0,29.89,North,9,6.0,-999.0,72,0.00,,,0.00,PyWeather,2013-04-22 03:22:00,
2013-04-21 17:27:00,78.4,68.8,29.89,North,5,6.0,-999.0,72,0.00,,,0.00,PyWeather,2013-04-22 03:27:00,
2013-04-21 17:32:00,78.2,69.0,29.89,NNE,17,6.0,-999.0,73,0.00,,,0.00,PyWeather,2013-04-22 03:32:00,
2013-04-21 17:37:00,78.0,68.8,29.90,North,5,6.0,-999.0,73,0.00,,,0.00,PyWeather,2013-04-22 03:37:00,
2013-04-21 17:42:00,78.1,68.9,29.90,North,360,6.0,-999.0,73,0.00,,,0.00,PyWeather,2013-04-22 03:42:00,
2013-04-21 17:47:00,78.1,68.9,29.90,NNW,348,6.0,-999.0,73,0.00,,,0.00,PyWeather,2013-04-22 03:47:00,
2013-04-21 17:52:00,77.9,68.7,29.90,North,355,6.0,-999.0,73,0.00,,,0.00,PyWeather,2013-04-22 03:52:00,
2013-04-21 17:57:00,77.8,68.6,29.91,North,9,6.0,-999.0,73,0.00,,,0.00,PyWeather,2013-04-22 03:57:00,
2013-04-21 18:01:00,77.6,68.4,29.91,North,5,5.0,-999.0,73,0.00,,,0.00,PyWeather,2013-04-22 04:01:00,
2013-04-21 18:02:00,77.6,68.4,29.91,NNE,15,4.0,-999.0,73,0.00,,,0.00,PyWeather,2013-04-22 04:02:00,
2013-04-21 18:03:00,77.6,68.4,29.91,North,360,4.0,-999.0,73,0.00,,,0.00,PyWeather,2013-04-22 04:03:00,
2013-04-21 18:09:00,77.5,68.7,29.91,North,5,3.0,-999.0,74,0.00,,,0.00,PyWeather,2013-04-22 04:09:00,
2013-04-21 18:14:00,77.5,68.7,29.91,NNE,22,3.0,-999.0,74,0.00,,,0.00,PyWeather,2013-04-22 04:14:00,
2013-04-21 18:19:00,77.4,68.3,29.92,North,5,2.0,-999.0,73,0.00,,,0.00,PyWeather,2013-04-22 04:19:00,
2013-04-21 18:24:00,77.4,68.6,29.92,North,10,2.0,-999.0,74,0.00,,,0.00,PyWeather,2013-04-22 04:24:00,
2013-04-21 18:29:00,77.3,68.5,29.92,North,9,2.0,-999.0,74,0.00,,,0.00,PyWeather,2013-04-22 04:29:00,
2013-04-21 18:34:00,77.1,68.3,29.92,North,10,2.0,-999.0,74,0.00,,,0.00,PyWeather,2013-04-22 04:34:00,
2013-04-21 18:39:00,77.0,68.3,29.92,NNE,17,1.0,-999.0,74,0.00,,,0.00,PyWeather,2013-04-22 04:39:00,
2013-04-21 18:44:00,77.0,68.6,29.92,North,11,0.0,-999.0,75,0.00,,,0.00,PyWeather,2013-04-22 04:44:00,
2013-04-21 18:49:00,76.8,68.4,29.92,North,11,2.0,-999.0,75,0.00,,,0.00,PyWeather,2013-04-22 04:49:00,
2013-04-21 18:54:00,76.7,68.3,29.93,North,10,2.0,-999.0,75,0.00,,,0.00,PyWeather,2013-04-22 04:54:00,
2013-04-21 18:59:00,76.6,68.6,29.93,North,11,0.0,-999.0,76,0.00,,,0.00,PyWeather,2013-04-22 04:59:00,
2013-04-21 19:04:00,76.5,68.5,29.93,North,11,0.0,-999.0,76,0.00,,,0.00,PyWeather,2013-04-22 05:04:00,
2013-04-21 19:09:00,76.4,68.4,29.93,North,11,0.0,-999.0,76,0.00,,,0.00,PyWeather,2013-04-22 05:09:00,
2013-04-21 19:14:00,76.4,68.4,29.93,North,11,0.0,-999.0,76,0.00,,,0.00,PyWeather,2013-04-22 05:14:00,
2013-04-21 19:19:00,76.3,68.7,29.93,North,11,0.0,-999.0,77,0.00,,,0.00,PyWeather,2013-04-22 05:19:00,
2013-04-21 19:24:00,76.2,68.6,29.93,North,11,0.0,-999.0,77,0.00,,,0.00,PyWeather,2013-04-22 05:24:00,
2013-04-21 19:29:00,76.0,68.0,29.93,North,11,0.0,-999.0,76,0.00,,,0.00,PyWeather,2013-04-22 05:29:00,
2013-04-21 19:34:00,76.0,68.4,29.94,North,11,0.0,-999.0,77,0.00,,,0.00,PyWeather,2013-04-22 05:34:00,
2013-04-21 19:39:00,76.0,68.4,29.94,North,11,0.0,-999.0,77,0.00,,,0.00,PyWeather,2013-04-22 05:39:00,
2013-04-21 19:44:00,75.8,68.2,29.94,North,11,0.0,-999.0,77,0.00,,,0.00,PyWeather,2013-04-22 05:44:00,
2013-04-21 19:49:00,75.7,68.1,29.94,North,11,0.0,-999.0,77,0.00,,,0.00,PyWeather,2013-04-22 05:49:00,
2013-04-21 19:54:00,75.7,68.1,29.93,North,11,0.0,-999.0,77,0.00,,,0.00,PyWeather,2013-04-22 05:54:00,
2013-04-21 19:59:00,75.7,68.1,29.93,North,11,0.0,-999.0,77,0.00,,,0.00,PyWeather,2013-04-22 05:59:00,
2013-04-21 20:04:00,75.6,68.0,29.94,North,11,0.0,-999.0,77,0.00,,,0.00,PyWeather,2013-04-22 06:04:00,
2013-04-21 20:09:00,75.5,68.3,29.94,North,11,0.0,-999.0,78,0.00,,,0.00,PyWeather,2013-04-22 06:09:00,
2013-04-21 20:14:00,75.5,68.3,29.94,North,11,0.0,-999.0,78,0.00,,,0.00,PyWeather,2013-04-22 06:14:00,
2013-04-21 20:19:00,75.4,68.5,29.94,North,11,0.0,-999.0,79,0.00,,,0.00,PyWeather,2013-04-22 06:19:00,
2013-04-21 20:24:00,75.2,68.3,29.94,North,11,0.0,-999.0,79,0.00,,,0.00,PyWeather,2013-04-22 06:24:00,
2013-04-21 20:29:00,75.1,68.3,29.94,North,11,0.0,-999.0,79,0.00,,,0.00,PyWeather,2013-04-22 06:29:00,
2013-04-21 20:34:00,74.9,68.1,29.94,North,11,0.0,-999.0,79,0.00,,,0.00,PyWeather,2013-04-22 06:34:00,
2013-04-21 20:39:00,74.8,68.0,29.94,North,11,0.0,-999.0,79,0.00,,,0.00,PyWeather,2013-04-22 06:39:00,
2013-04-21 20:44:00,74.8,68.3,29.94,North,11,0.0,-999.0,80,0.00,,,0.00,PyWeather,2013-04-22 06:44:00,
2013-04-21 20:49:00,74.6,67.8,29.94,North,11,0.0,-999.0,79,0.00,,,0.00,PyWeather,2013-04-22 06:49:00,
2013-04-21 20:54:00,74.3,67.5,29.94,North,11,0.0,-999.0,79,0.00,,,0.00,PyWeather,2013-04-22 06:54:00,
2013-04-21 20:59:00,74.1,67.3,29.94,North,11,0.0,-999.0,79,0.00,,,0.00,PyWeather,2013-04-22 06:59:00,
2013-04-21 21:04:00,74.0,67.2,29.95,North,11,0.0,-999.0,79,0.00,,,0.00,PyWeather,2013-04-22 07:04:00,
2013-04-21 21:09:00,73.9,67.4,29.95,North,10,0.0,-999.0,80,0.00,,,0.00,PyWeather,2013-04-22 07:09:00,
2013-04-21 21:14:00,73.8,67.3,29.95,North,11,0.0,-999.0,80,0.00,,,0.00,PyWeather,2013-04-22 07:14:00,
2013-04-21 21:19:00,73.8,67.3,29.95,North,11,0.0,-999.0,80,0.00,,,0.00,PyWeather,2013-04-22 07:19:00,
2013-04-21 21:24:00,73.4,66.6,29.95,North,11,0.0,-999.0,79,0.00,,,0.00,PyWeather,2013-04-22 07:24:00,
2013-04-21 21:29:00,73.2,66.8,29.94,North,11,0.0,-999.0,80,0.00,,,0.00,PyWeather,2013-04-22 07:29:00,
2013-04-21 21:34:00,73.1,66.7,29.95,North,11,0.0,-999.0,80,0.00,,,0.00,PyWeather,2013-04-22 07:34:00,
2013-04-21 21:39:00,72.8,66.4,29.95,North,11,0.0,-999.0,80,0.00,,,0.00,PyWeather,2013-04-22 07:39:00,
2013-04-21 21:44:00,72.6,66.2,29.95,North,11,0.0,-999.0,80,0.00,,,0.00,PyWeather,2013-04-22 07:44:00,
2013-04-21 21:49:00,72.3,65.9,29.95,North,10,0.0,-999.0,80,0.00,,,0.00,PyWeather,2013-04-22 07:49:00,
2013-04-21 21:54:00,72.2,66.1,29.95,North,11,0.0,-999.0,81,0.00,,,0.00,PyWeather,2013-04-22 07:54:00,
2013-04-21 21:59:00,72.1,66.0,29.95,North,11,0.0,-999.0,81,0.00,,,0.00,PyWeather,2013-04-22 07:59:00,
2013-04-21 22:04:00,71.9,65.8,29.95,North,11,0.0,-999.0,81,0.00,,,0.00,PyWeather,2013-04-22 08:04:00,
2013-04-21 22:09:00,71.9,66.2,29.95,North,11,0.0,-999.0,82,0.00,,,0.00,PyWeather,2013-04-22 08:09:00,
2013-04-21 22:14:00,71.9,66.2,29.94,North,11,0.0,-999.0,82,0.00,,,0.00,PyWeather,2013-04-22 08:14:00,
2013-04-21 22:19:00,72.0,66.3,29.94,North,11,0.0,-999.0,82,0.00,,,0.00,PyWeather,2013-04-22 08:19:00,
2013-04-21 22:24:00,72.1,66.7,29.95,North,11,0.0,-999.0,83,0.00,,,0.00,PyWeather,2013-04-22 08:24:00,
2013-04-21 22:29:00,72.1,66.7,29.95,North,11,0.0,-999.0,83,0.00,,,0.00,PyWeather,2013-04-22 08:29:00,
2013-04-21 22:34:00,71.8,66.1,29.94,North,11,0.0,-999.0,82,0.00,,,0.00,PyWeather,2013-04-22 08:34:00,
2013-04-21 22:39:00,71.5,65.8,29.95,North,11,0.0,-999.0,82,0.00,,,0.00,PyWeather,2013-04-22 08:39:00,
2013-04-21 22:44:00,71.5,65.8,29.95,North,11,0.0,-999.0,82,0.00,,,0.00,PyWeather,2013-04-22 08:44:00,
2013-04-21 22:49:00,71.7,66.0,29.95,North,11,0.0,-999.0,82,0.00,,,0.00,PyWeather,2013-04-22 08:49:00,
2013-04-21 22:54:00,71.6,65.9,29.95,North,11,0.0,-999.0,82,0.00,,,0.00,PyWeather,2013-04-22 08:54:00,
2013-04-21 22:59:00,71.5,65.8,29.95,North,11,0.0,-999.0,82,0.00,,,0.00,PyWeather,2013-04-22 08:59:00,
2013-04-21 23:04:00,71.4,65.7,29.94,North,11,0.0,-999.0,82,0.00,,,0.00,PyWeather,2013-04-22 09:04:00,
2013-04-21 23:09:00,71.3,65.2,29.94,North,11,0.0,-999.0,81,0.00,,,0.00,PyWeather,2013-04-22 09:09:00,
2013-04-21 23:14:00,71.3,65.2,29.95,North,11,0.0,-999.0,81,0.00,,,0.00,PyWeather,2013-04-22 09:14:00,
2013-04-21 23:19:00,71.5,65.8,29.94,North,10,0.0,-999.0,82,0.00,,,0.00,PyWeather,2013-04-22 09:19:00,
2013-04-21 23:24:00,71.9,66.5,29.94,North,10,0.0,-999.0,83,0.00,,,0.00,PyWeather,2013-04-22 09:24:00,
2013-04-21 23:29:00,73.1,67.7,29.94,WSW,237,0.0,-999.0,83,0.00,,,0.00,PyWeather,2013-04-22 09:29:00,
2013-04-21 23:34:00,73.7,67.9,29.94,SW,222,1.0,-999.0,82,0.00,,,0.00,PyWeather,2013-04-22 09:34:00,
2013-04-21 23:39:00,73.8,68.0,29.93,SW,221,0.0,-999.0,82,0.00,,,0.00,PyWeather,2013-04-22 09:39:00,
2013-04-21 23:44:00,73.7,67.9,29.93,SW,221,0.0,-999.0,82,0.00,,,0.00,PyWeather,2013-04-22 09:44:00,
2013-04-21 23:49:00,73.8,68.4,29.93,SW,222,0.0,-999.0,83,0.00,,,0.00,PyWeather,2013-04-22 09:49:00,
2013-04-21 23:54:00,73.9,68.5,29.93,SW,227,0.0,-999.0,83,0.00,,,0.00,PyWeather,2013-04-22 09:54:00,
2013-04-21 23:59:00,74.2,69.1,29.93,SW,224,1.0,-999.0,84,0.00,,,0.00,PyWeather,2013-04-22 09:59:00,